sat.trackr.live / text

‹ back to catalog

STARLINK-5915

NORAD 55987 · 2023-042B

PAYLOAD ACTIVE UNKNOWN

§ Identity

Operator
Country
US
Launch date
2023-03-24
Launch site
AFETR
Launch vehicle
Mass (kg)
RCS (m²)

Purposes: comms

External: N2YO · Heavens-Above · Gunter

§ Orbital elements

Epoch: 2026-05-24T22:56:39.245856Z

Period
94.32 min
Inclination
43.0050°
Eccentricity
0.0001664
Mean motion
15.26749747 rev/d
Perigee alt
484.4 km
Apogee alt
486.7 km
Semi-major
6,863.7 km
B*
6.9072e-5
RAAN
348.8820°
Arg perigee
272.5621°
Mean anomaly
87.5040°
Rev number
17,453

§ Raw data

STARLINK-59151 55987U 23042B   26144.95600979  .00001594  00000+0  69072-4 0  99932 55987  43.0050 348.8820 0001664 272.5621  87.5040 15.26749747174539

JSON: /api/v1/satellites/55987 · /tle

For live sub-satellite position, see the globe view (requires WebGL).

§ Visibility from observer

Set your observer location to see the next 7 days of passes ≥ 10°. The values pass through the URL so the page stays shareable.

No JS? Fill the form by hand. The geolocation button needs JavaScript.